COSMOS 2251 DEB

Satellite information

Favourite Embed

Satellite Type and Status

DEBRISIN ORBIT

Key statistics

Satellite COSMOS 2251 DEB at a glance.

Uptime

11649

Days in orbit

Revolutions

≈ 14.4

Per day

Orbit

LEO

Low Earth Orbit

Inclination

74.0

Latest

Satellite identification and parameters

Extended collection of information and parameters for COSMOS 2251 DEB.

Object identification

Identified? True

Debris? True

Object name: COSMOS 2251 DEB

International designator: 1993-036VU

Object number (NORAD): 34582

Object ID (CCSDS): 34582

Country: COMMONWEALTH OF INDEPENDENT STATES (CIS)

Current information (Y/N): Y

RCS size: SMALL

Orbital parameters

Period: 99.842 minutes

Inclination: 74.0195 deg

SMA: 7129.132 km

Apoapsis: 787.136 km

Periapsis: 714.858 km

RAAN: 318.9637 deg

Eccentricy: 0.0050692

Argument of periapsis: 123.9352 deg

Mean anomaly: 236.6639 deg

Mean motion: 14.4227397 rev/day

Mean motion (dot): 0.00002294 rev/day2

B* drag term: 0.00069254 1/REarth

Two-line elements (TLE)

Creation date: May 7, 2025, 10:26 p.m.

Reference frame: TEME

Reference center: EARTH

Epoch: May 7, 2025, 9:21 p.m. UTC

TLE line 0: 0 COSMOS 2251 DEB

TLE line 1: 1 34582U 93036VU 25127.88975880 .00002294 00000-0 69254-3 0 9999

TLE line 2: 2 34582 74.0195 318.9637 0050692 123.9352 236.6639 14.42273970847917

Live tracking on map

Real-time ground track for satellite COSMOS 2251 DEB.

In-orbit conjunctions

A list of the most updated potential collisions computed for object COSMOS 2251 DEB.

Target Orbit TCA Probability of collision Miss distance Type
NOAA 16 DEB SSO 2025-04-16 07:37:31 0.000311235 165.0 (m) DEBRIS
FENGYUN 1C DEB SSO 2025-03-01 13:20:26 0.000107095 65.0 (m) DEBRIS

Associated space launch

Military communications satellite. Destroyed in a collision with Iridium 33.

COSMOS 2251 DEB was lifted into orbit during the mission ‘Kosmos-3M | Strela-2M 51’, on board a Kosmos-3M space rocket.

The launch took place on June 16, 1993, 4:17 a.m. from 132/1 (132L).

For more information about the launch, click the button.

Launch to space Kosmos-3M | Strela-2M 51
Kosmos-3M | Strela-2M 51

Agency: N/A

Status: Launch Successful

Launch date: June 16, 1993, 4:17 a.m. UTC

Rocket: Kosmos-3M

Launch pad: 132/1 (132L)

Location: Plesetsk Cosmodrome, Russian Federation

...

Latest news about this satellite

There are no fresh news available about this satellite. Check back as we update our databases every day.


Newsletter sign-up

Weekly statistics, charts and insights to help you stay on top of the space industry.